Time,TemperatureF,DewpointF,PressureIn,WindDirection,WindDirectionDegrees,WindSpeedMPH,WindSpeedGustMPH,Humidity,HourlyPrecipIn,Conditions,Clouds,dailyrainin,SoftwareType,DateUTC
2013-02-27 12:16:00,33.1,12.0,29.10,North,-999,-999.0,-999.0,41,0.00,,,0.00,meteohub,2013-02-27 18:16:00,
2013-02-27 12:17:00,33.1,12.0,29.10,North,-999,-999.0,-999.0,41,0.00,,,0.00,meteohub,2013-02-27 18:17:00,
2013-02-27 12:18:00,33.1,12.0,29.10,North,-999,-999.0,-999.0,41,0.00,,,0.00,meteohub,2013-02-27 18:18:00,
2013-02-27 12:24:00,33.3,12.0,29.10,North,-999,-999.0,-999.0,41,0.04,,,0.17,meteohub,2013-02-27 18:24:00,
2013-02-27 12:29:00,33.3,12.0,29.13,North,-999,-999.0,-999.0,41,0.04,,,0.17,meteohub,2013-02-27 18:29:00,
2013-02-27 12:34:00,33.1,12.0,29.13,North,-999,-999.0,-999.0,41,0.04,,,0.17,meteohub,2013-02-27 18:34:00,
2013-02-27 12:40:00,33.1,12.0,29.13,North,-999,-999.0,-999.0,41,0.04,,,0.17,meteohub,2013-02-27 18:40:00,
2013-02-27 12:45:00,33.1,12.0,29.13,North,-999,-999.0,-999.0,41,0.04,,,0.17,meteohub,2013-02-27 18:45:00,
2013-02-27 12:51:00,32.9,11.8,29.13,North,-999,-999.0,-999.0,41,0.04,,,0.17,meteohub,2013-02-27 18:51:00,
2013-02-27 12:56:00,32.9,11.8,29.16,North,-999,-999.0,-999.0,41,0.04,,,0.17,meteohub,2013-02-27 18:56:00,
2013-02-27 13:01:00,33.1,12.0,29.16,North,-999,-999.0,-999.0,41,0.04,,,0.17,meteohub,2013-02-27 19:01:00,
2013-02-27 13:07:00,33.3,12.0,29.16,North,-999,-999.0,-999.0,41,0.04,,,0.17,meteohub,2013-02-27 19:07:00,
2013-02-27 13:12:00,33.3,12.0,29.16,North,-999,-999.0,-999.0,41,0.04,,,0.17,meteohub,2013-02-27 19:12:00,
2013-02-27 13:17:00,33.4,12.2,29.16,North,-999,-999.0,-999.0,41,0.04,,,0.17,meteohub,2013-02-27 19:17:00,
2013-02-27 13:22:00,33.4,12.2,29.16,North,-999,-999.0,-999.0,41,0.04,,,0.17,meteohub,2013-02-27 19:22:00,
2013-02-27 13:27:00,33.8,12.6,29.16,North,-999,-999.0,-999.0,41,0.00,,,0.17,meteohub,2013-02-27 19:27:00,
2013-02-27 13:32:00,34.0,12.2,29.16,North,-999,-999.0,-999.0,40,0.00,,,0.04,meteohub,2013-02-27 19:32:00,
2013-02-27 13:37:00,34.3,12.6,29.16,North,-999,-999.0,-999.0,40,0.00,,,0.04,meteohub,2013-02-27 19:37:00,
2013-02-27 13:42:00,34.5,12.7,29.16,North,-999,-999.0,-999.0,40,0.00,,,0.04,meteohub,2013-02-27 19:42:00,
2013-02-27 13:48:00,34.9,12.9,29.16,North,-999,-999.0,-999.0,40,0.00,,,0.04,meteohub,2013-02-27 19:48:00,
2013-02-27 13:53:00,34.2,12.4,29.16,North,-999,-999.0,-999.0,40,0.00,,,0.04,meteohub,2013-02-27 19:53:00,
2013-02-27 13:59:00,34.0,12.7,29.19,North,-999,-999.0,-999.0,41,0.00,,,0.04,meteohub,2013-02-27 19:59:00,
2013-02-27 14:04:00,34.2,12.9,29.19,North,-999,-999.0,-999.0,41,0.00,,,0.04,meteohub,2013-02-27 20:04:00,
2013-02-27 14:09:00,34.0,12.7,29.19,North,-999,-999.0,-999.0,41,-99.99,,,0.04,meteohub,2013-02-27 20:09:00,
2013-02-27 14:15:00,34.2,12.9,29.19,North,-999,-999.0,-999.0,41,-99.99,,,0.04,meteohub,2013-02-27 20:15:00,
2013-02-27 14:20:00,34.0,12.7,29.19,North,-999,-999.0,-999.0,41,-99.99,,,0.04,meteohub,2013-02-27 20:20:00,
2013-02-27 14:25:00,33.8,12.6,29.16,North,-999,-999.0,-999.0,41,-99.99,,,0.04,meteohub,2013-02-27 20:25:00,
2013-02-27 14:31:00,34.2,12.9,29.16,North,-999,-999.0,-999.0,41,-99.99,,,0.04,meteohub,2013-02-27 20:31:00,
2013-02-27 14:36:00,34.0,12.7,29.16,North,-999,-999.0,-999.0,41,-99.99,,,0.04,meteohub,2013-02-27 20:36:00,
2013-02-27 14:41:00,33.8,12.6,29.19,North,-999,-999.0,-999.0,41,-99.99,,,0.04,meteohub,2013-02-27 20:41:00,
2013-02-27 14:46:00,33.8,12.6,29.19,North,-999,-999.0,-999.0,41,-99.99,,,0.04,meteohub,2013-02-27 20:46:00,
2013-02-27 14:52:00,33.6,12.4,29.19,North,-999,-999.0,-999.0,41,-99.99,,,0.04,meteohub,2013-02-27 20:52:00,
2013-02-27 14:57:00,33.4,12.2,29.19,North,-999,-999.0,-999.0,41,-99.99,,,0.04,meteohub,2013-02-27 20:57:00,
2013-02-27 15:02:00,33.3,12.0,29.19,North,-999,-999.0,-999.0,41,-99.99,,,0.12,meteohub,2013-02-27 21:02:00,
2013-02-27 15:07:00,33.3,12.0,29.19,North,-999,-999.0,-999.0,41,0.00,,,0.12,meteohub,2013-02-27 21:07:00,
2013-02-27 15:12:00,33.3,12.0,29.19,North,-999,-999.0,-999.0,41,0.00,,,0.12,meteohub,2013-02-27 21:12:00,
2013-02-27 15:17:00,33.3,12.0,29.19,North,-999,-999.0,-999.0,41,0.00,,,0.12,meteohub,2013-02-27 21:17:00,
2013-02-27 15:22:00,33.4,12.2,29.19,North,-999,-999.0,-999.0,41,0.00,,,0.12,meteohub,2013-02-27 21:22:00,
2013-02-27 15:27:00,33.6,12.4,29.22,North,-999,-999.0,-999.0,41,0.00,,,0.12,meteohub,2013-02-27 21:27:00,
2013-02-27 15:32:00,33.8,12.6,29.22,North,-999,-999.0,-999.0,41,0.00,,,0.12,meteohub,2013-02-27 21:32:00,
2013-02-27 15:37:00,33.8,12.6,29.22,North,-999,-999.0,-999.0,41,0.00,,,0.12,meteohub,2013-02-27 21:37:00,
2013-02-27 15:42:00,33.8,12.6,29.22,North,-999,-999.0,-999.0,41,0.00,,,0.12,meteohub,2013-02-27 21:42:00,
2013-02-27 15:47:00,33.6,12.4,29.22,North,-999,-999.0,-999.0,41,0.04,,,0.12,meteohub,2013-02-27 21:47:00,
2013-02-27 15:52:00,33.3,12.0,29.22,North,-999,-999.0,-999.0,41,0.04,,,0.17,meteohub,2013-02-27 21:52:00,
2013-02-27 15:57:00,33.3,12.0,29.22,North,-999,-999.0,-999.0,41,0.04,,,0.17,meteohub,2013-02-27 21:57:00,
2013-02-27 16:03:00,33.3,12.0,29.22,North,-999,-999.0,-999.0,41,0.04,,,0.17,meteohub,2013-02-27 22:03:00,
2013-02-27 16:08:00,33.3,12.0,29.22,North,-999,-999.0,-999.0,41,0.04,,,0.17,meteohub,2013-02-27 22:08:00,
2013-02-27 16:13:00,32.9,11.8,29.22,North,-999,-999.0,-999.0,41,0.04,,,0.17,meteohub,2013-02-27 22:13:00,
2013-02-27 16:19:00,33.1,12.0,29.22,North,-999,-999.0,-999.0,41,0.04,,,0.17,meteohub,2013-02-27 22:19:00,
2013-02-27 16:24:00,33.1,12.0,29.22,North,-999,-999.0,-999.0,41,0.04,,,0.17,meteohub,2013-02-27 22:24:00,
2013-02-27 16:30:00,32.9,11.8,29.22,North,-999,-999.0,-999.0,41,0.04,,,0.17,meteohub,2013-02-27 22:30:00,
2013-02-27 16:35:00,32.7,11.7,29.22,North,-999,-999.0,-999.0,41,0.04,,,0.17,meteohub,2013-02-27 22:35:00,
2013-02-27 16:40:00,32.9,11.8,29.22,North,-999,-999.0,-999.0,41,0.04,,,0.17,meteohub,2013-02-27 22:40:00,
2013-02-27 16:46:00,33.1,12.0,29.22,North,-999,-999.0,-999.0,41,0.00,,,0.17,meteohub,2013-02-27 22:46:00,
2013-02-27 16:51:00,32.9,11.8,29.22,North,-999,-999.0,-999.0,41,0.00,,,0.17,meteohub,2013-02-27 22:51:00,
2013-02-27 16:56:00,33.1,12.0,29.22,North,-999,-999.0,-999.0,41,0.00,,,0.17,meteohub,2013-02-27 22:56:00,
2013-02-27 17:02:00,33.1,12.0,29.22,North,-999,-999.0,-999.0,41,0.00,,,0.17,meteohub,2013-02-27 23:02:00,
2013-02-27 17:07:00,33.1,12.0,29.22,North,-999,-999.0,-999.0,41,0.00,,,0.17,meteohub,2013-02-27 23:07:00,
2013-02-27 17:12:00,32.7,11.7,29.22,North,-999,-999.0,-999.0,41,0.00,,,0.17,meteohub,2013-02-27 23:12:00,
2013-02-27 17:17:00,32.7,11.7,29.22,North,-999,-999.0,-999.0,41,0.00,,,0.17,meteohub,2013-02-27 23:17:00,
2013-02-27 17:23:00,32.5,11.5,29.22,North,-999,-999.0,-999.0,41,0.00,,,0.17,meteohub,2013-02-27 23:23:00,
2013-02-27 17:28:00,32.5,11.5,29.22,North,-999,-999.0,-999.0,41,0.00,,,0.17,meteohub,2013-02-27 23:28:00,
2013-02-27 17:33:00,32.5,11.5,29.22,North,-999,-999.0,-999.0,41,0.00,,,0.17,meteohub,2013-02-27 23:33:00,
2013-02-27 17:39:00,32.5,11.5,29.22,North,-999,-999.0,-999.0,41,0.00,,,0.17,meteohub,2013-02-27 23:39:00,
2013-02-27 17:44:00,32.5,11.5,29.25,North,-999,-999.0,-999.0,41,0.00,,,0.17,meteohub,2013-02-27 23:44:00,
2013-02-27 17:50:00,32.5,11.5,29.25,North,-999,-999.0,-999.0,41,0.00,,,0.17,meteohub,2013-02-27 23:50:00,
2013-02-27 17:55:00,32.5,11.5,29.25,North,-999,-999.0,-999.0,41,0.00,,,0.17,meteohub,2013-02-27 23:55:00,
2013-02-27 18:00:00,32.5,11.5,29.25,North,-999,-999.0,-999.0,41,0.00,,,0.17,meteohub,2013-02-28 00:00:00,
2013-02-27 18:05:00,32.4,11.3,29.25,North,-999,-999.0,-999.0,41,0.00,,,0.17,meteohub,2013-02-28 00:05:00,
2013-02-27 18:10:00,32.4,11.3,29.25,North,-999,-999.0,-999.0,41,0.00,,,0.17,meteohub,2013-02-28 00:10:00,
2013-02-27 18:16:00,32.2,11.1,29.25,North,-999,-999.0,-999.0,41,0.00,,,0.00,meteohub,2013-02-28 00:16:00,
2013-02-27 18:21:00,32.2,11.1,29.25,North,-999,-999.0,-999.0,41,0.00,,,0.00,meteohub,2013-02-28 00:21:00,
2013-02-27 18:26:00,32.0,10.9,29.25,North,-999,-999.0,-999.0,41,0.00,,,0.00,meteohub,2013-02-28 00:26:00,
2013-02-27 18:31:00,32.2,11.1,29.25,North,-999,-999.0,-999.0,41,0.00,,,0.00,meteohub,2013-02-28 00:31:00,
2013-02-27 18:37:00,32.2,11.1,29.25,North,-999,-999.0,-999.0,41,0.00,,,0.00,meteohub,2013-02-28 00:37:00,
2013-02-27 18:42:00,32.2,11.1,29.25,North,-999,-999.0,-999.0,41,0.00,,,0.00,meteohub,2013-02-28 00:42:00,
2013-02-27 18:47:00,32.2,11.1,29.25,North,-999,-999.0,-999.0,41,0.00,,,0.00,meteohub,2013-02-28 00:47:00,
2013-02-27 18:52:00,32.2,11.1,29.25,North,-999,-999.0,-999.0,41,0.00,,,0.00,meteohub,2013-02-28 00:52:00,
2013-02-27 18:57:00,32.2,11.1,29.25,North,-999,-999.0,-999.0,41,0.00,,,0.00,meteohub,2013-02-28 00:57:00,
2013-02-27 19:03:00,32.2,11.1,29.25,North,-999,-999.0,-999.0,41,0.00,,,0.00,meteohub,2013-02-28 01:03:00,
2013-02-27 19:08:00,32.0,10.9,29.25,North,-999,-999.0,-999.0,41,0.00,,,0.00,meteohub,2013-02-28 01:08:00,
2013-02-27 19:13:00,31.8,10.8,29.25,North,-999,-999.0,-999.0,41,0.00,,,0.00,meteohub,2013-02-28 01:13:00,
2013-02-27 19:18:00,31.8,10.8,29.25,North,-999,-999.0,-999.0,41,0.00,,,0.00,meteohub,2013-02-28 01:18:00,
2013-02-27 19:24:00,31.5,10.4,29.25,North,-999,-999.0,-999.0,41,0.00,,,0.00,meteohub,2013-02-28 01:24:00,
2013-02-27 19:29:00,30.9,10.0,29.25,North,-999,-999.0,-999.0,41,0.00,,,0.00,meteohub,2013-02-28 01:29:00,
2013-02-27 19:34:00,30.6,9.7,29.25,North,-999,-999.0,-999.0,41,0.00,,,0.00,meteohub,2013-02-28 01:34:00,
2013-02-27 19:39:00,30.2,9.9,29.25,North,-999,-999.0,-999.0,42,0.00,,,0.00,meteohub,2013-02-28 01:39:00,
2013-02-27 19:45:00,29.8,9.5,29.25,North,-999,-999.0,-999.0,42,0.00,,,0.00,meteohub,2013-02-28 01:45:00,
2013-02-27 19:50:00,29.8,9.5,29.25,North,-999,-999.0,-999.0,42,0.00,,,0.00,meteohub,2013-02-28 01:50:00,
2013-02-27 19:55:00,29.7,9.3,29.25,North,-999,-999.0,-999.0,42,0.00,,,0.00,meteohub,2013-02-28 01:55:00,
2013-02-27 20:00:00,29.8,9.5,29.25,North,-999,-999.0,-999.0,42,0.00,,,0.00,meteohub,2013-02-28 02:00:00,
2013-02-27 20:06:00,29.8,9.5,29.25,North,-999,-999.0,-999.0,42,0.00,,,0.00,meteohub,2013-02-28 02:06:00,
2013-02-27 20:11:00,30.2,9.9,29.25,North,-999,-999.0,-999.0,42,0.00,,,0.00,meteohub,2013-02-28 02:11:00,
2013-02-27 20:17:00,30.2,9.9,29.25,North,-999,-999.0,-999.0,42,0.00,,,0.00,meteohub,2013-02-28 02:17:00,
2013-02-27 20:22:00,30.2,9.9,29.25,North,-999,-999.0,-999.0,42,0.00,,,0.00,meteohub,2013-02-28 02:22:00,
2013-02-27 20:27:00,30.2,9.9,29.25,North,-999,-999.0,-999.0,42,0.00,,,0.00,meteohub,2013-02-28 02:27:00,
2013-02-27 20:32:00,29.8,9.5,29.25,North,-999,-999.0,-999.0,42,0.00,,,0.00,meteohub,2013-02-28 02:32:00,
2013-02-27 20:37:00,29.8,9.5,29.25,North,-999,-999.0,-999.0,42,0.00,,,0.00,meteohub,2013-02-28 02:37:00,
2013-02-27 20:42:00,30.0,9.7,29.25,North,-999,-999.0,-999.0,42,0.00,,,0.00,meteohub,2013-02-28 02:42:00,
2013-02-27 20:48:00,30.2,9.9,29.25,North,-999,-999.0,-999.0,42,0.00,,,0.00,meteohub,2013-02-28 02:48:00,
2013-02-27 20:53:00,30.6,9.7,29.25,North,-999,-999.0,-999.0,41,0.00,,,0.00,meteohub,2013-02-28 02:53:00,
2013-02-27 22:24:00,31.8,10.8,29.25,North,-999,-999.0,-999.0,41,0.00,,,0.00,meteohub,2013-02-28 04:24:00,
2013-02-27 22:29:00,31.8,10.8,29.28,North,-999,-999.0,-999.0,41,0.00,,,0.00,meteohub,2013-02-28 04:29:00,
2013-02-27 22:35:00,32.2,11.1,29.28,North,-999,-999.0,-999.0,41,0.00,,,0.00,meteohub,2013-02-28 04:35:00,
2013-02-27 22:40:00,32.2,11.1,29.28,North,-999,-999.0,-999.0,41,0.00,,,0.00,meteohub,2013-02-28 04:40:00,
2013-02-27 22:45:00,32.4,11.3,29.28,North,-999,-999.0,-999.0,41,0.00,,,0.00,meteohub,2013-02-28 04:45:00,
2013-02-27 22:51:00,32.7,11.7,29.28,North,-999,-999.0,-999.0,41,0.00,,,0.00,meteohub,2013-02-28 04:51:00,
2013-02-27 22:56:00,32.7,11.7,29.28,North,-999,-999.0,-999.0,41,0.00,,,0.00,meteohub,2013-02-28 04:56:00,
2013-02-27 23:00:00,32.7,11.7,29.28,North,-999,-999.0,-999.0,41,0.00,,,0.00,meteohub,2013-02-28 05:00:00,
2013-02-27 23:02:00,32.7,11.7,29.28,North,-999,-999.0,-999.0,41,0.00,,,0.00,meteohub,2013-02-28 05:02:00,
2013-02-27 23:03:00,32.7,11.7,29.28,North,-999,-999.0,-999.0,41,0.00,,,0.00,meteohub,2013-02-28 05:03:00,
2013-02-27 23:08:00,32.7,11.7,29.28,North,-999,-999.0,-999.0,41,0.00,,,0.00,meteohub,2013-02-28 05:08:00,
2013-02-27 23:13:00,32.7,11.7,29.28,North,-999,-999.0,-999.0,41,0.00,,,0.00,meteohub,2013-02-28 05:13:00,
2013-02-27 23:19:00,33.1,12.0,29.28,North,-999,-999.0,-999.0,41,0.00,,,0.00,meteohub,2013-02-28 05:19:00,
2013-02-27 23:24:00,33.1,12.0,29.28,North,-999,-999.0,-999.0,41,0.00,,,0.00,meteohub,2013-02-28 05:24:00,
2013-02-27 23:29:00,32.9,11.8,29.28,North,-999,-999.0,-999.0,41,0.00,,,0.00,meteohub,2013-02-28 05:29:00,
2013-02-27 23:34:00,32.7,11.7,29.28,North,-999,-999.0,-999.0,41,0.00,,,0.00,meteohub,2013-02-28 05:34:00,
2013-02-27 23:40:00,32.5,11.5,29.28,North,-999,-999.0,-999.0,41,0.00,,,0.00,meteohub,2013-02-28 05:40:00,
2013-02-27 23:45:00,32.5,11.5,29.28,North,-999,-999.0,-999.0,41,0.00,,,0.00,meteohub,2013-02-28 05:45:00,
2013-02-27 23:50:00,32.5,11.5,29.28,North,-999,-999.0,-999.0,41,0.00,,,0.00,meteohub,2013-02-28 05:50:00,
2013-02-27 23:56:00,32.2,11.1,29.28,North,-999,-999.0,-999.0,41,0.00,,,0.00,meteohub,2013-02-28 05:56:00,